Time,TemperatureF,DewpointF,PressureIn,WindDirection,WindDirectionDegrees,WindSpeedMPH,WindSpeedGustMPH,Humidity,HourlyPrecipIn,Conditions,Clouds,dailyrainin,SolarRadiationWatts/m^2,SoftwareType,DateUTC
2013-03-29 00:23:00,36.0,29.0,-100.00,East,97,7.0,8.0,77,0.00,,,-99.99,0.000000,,2013-03-29 05:23:00,
2013-03-29 00:33:00,36.0,29.0,-100.00,East,97,7.0,8.0,77,0.00,,,-99.99,0.000000,,2013-03-29 05:33:00,
2013-03-29 00:43:00,36.0,29.0,-100.00,East,97,7.0,8.0,77,0.00,,,-99.99,0.000000,,2013-03-29 05:43:00,
2013-03-29 00:52:00,36.0,29.0,-100.00,East,97,7.0,8.0,77,0.00,,,-99.99,0.000000,,2013-03-29 05:52:00,
2013-03-29 01:23:00,36.0,29.0,-100.00,ESE,119,7.0,9.0,74,0.00,,,-99.99,0.000000,,2013-03-29 06:23:00,
2013-03-29 01:32:00,36.0,29.0,-100.00,ESE,119,7.0,9.0,74,0.00,,,-99.99,0.000000,,2013-03-29 06:32:00,
2013-03-29 01:42:00,36.0,29.0,-100.00,ESE,119,7.0,9.0,74,0.00,,,-99.99,0.000000,,2013-03-29 06:42:00,
2013-03-29 01:52:00,36.0,29.0,-100.00,ESE,119,7.0,9.0,74,0.00,,,-99.99,0.000000,,2013-03-29 06:52:00,
2013-03-29 02:22:00,35.0,30.0,-100.00,ESE,120,7.0,9.0,82,0.00,,,-99.99,0.000000,,2013-03-29 07:22:00,
2013-03-29 02:32:00,35.0,30.0,-100.00,ESE,120,7.0,9.0,82,0.00,,,-99.99,0.000000,,2013-03-29 07:32:00,
2013-03-29 02:42:00,35.0,30.0,-100.00,ESE,120,7.0,9.0,82,0.00,,,-99.99,0.000000,,2013-03-29 07:42:00,
2013-03-29 02:52:00,35.0,30.0,-100.00,ESE,120,7.0,9.0,82,0.00,,,-99.99,0.000000,,2013-03-29 07:52:00,
2013-03-29 03:22:00,32.0,28.0,-100.00,ESE,111,3.0,7.0,86,0.00,,,-99.99,0.000000,,2013-03-29 08:22:00,
2013-03-29 03:32:00,32.0,28.0,-100.00,ESE,111,3.0,7.0,86,0.00,,,-99.99,0.000000,,2013-03-29 08:32:00,
2013-03-29 03:42:00,32.0,28.0,-100.00,ESE,111,3.0,7.0,86,0.00,,,-99.99,0.000000,,2013-03-29 08:42:00,
2013-03-29 03:52:00,32.0,28.0,-100.00,ESE,111,3.0,7.0,86,0.00,,,-99.99,0.000000,,2013-03-29 08:52:00,
2013-03-29 04:22:00,29.0,29.0,-100.00,East,81,2.0,4.0,100,0.00,,,-99.99,0.000000,,2013-03-29 09:22:00,
2013-03-29 04:33:00,29.0,29.0,-100.00,East,81,2.0,4.0,100,0.00,,,-99.99,0.000000,,2013-03-29 09:33:00,
2013-03-29 04:42:00,29.0,29.0,-100.00,East,81,2.0,4.0,100,0.00,,,-99.99,0.000000,,2013-03-29 09:42:00,
2013-03-29 04:52:00,29.0,29.0,-100.00,East,81,2.0,4.0,100,0.00,,,-99.99,0.000000,,2013-03-29 09:52:00,
2013-03-29 05:23:00,33.0,33.0,-100.00,East,101,5.0,6.0,99,0.00,,,-99.99,0.000000,,2013-03-29 10:23:00,
2013-03-29 05:33:00,33.0,33.0,-100.00,East,101,5.0,6.0,99,0.00,,,-99.99,0.000000,,2013-03-29 10:33:00,
2013-03-29 05:42:00,33.0,33.0,-100.00,East,101,5.0,6.0,99,0.00,,,-99.99,0.000000,,2013-03-29 10:42:00,
2013-03-29 05:52:00,33.0,33.0,-100.00,East,101,5.0,6.0,99,0.00,,,-99.99,0.000000,,2013-03-29 10:52:00,
2013-03-29 06:23:00,27.0,27.0,-100.00,WNW,303,0.0,3.0,100,0.00,,,-99.99,0.000000,,2013-03-29 11:23:00,
2013-03-29 06:33:00,27.0,27.0,-100.00,WNW,303,0.0,3.0,100,0.00,,,-99.99,0.000000,,2013-03-29 11:33:00,
2013-03-29 06:42:00,27.0,27.0,-100.00,WNW,303,0.0,3.0,100,0.00,,,-99.99,0.000000,,2013-03-29 11:42:00,
2013-03-29 06:52:00,27.0,27.0,-100.00,WNW,303,0.0,3.0,100,0.00,,,-99.99,0.000000,,2013-03-29 11:52:00,
2013-03-29 07:22:00,28.0,28.0,-100.00,SE,132,4.0,5.0,100,0.00,,,-99.99,0.000000,,2013-03-29 12:22:00,
2013-03-29 07:32:00,28.0,28.0,-100.00,SE,132,4.0,5.0,100,0.00,,,-99.99,0.000000,,2013-03-29 12:32:00,
2013-03-29 07:42:00,28.0,28.0,-100.00,SE,132,4.0,5.0,100,0.00,,,-99.99,0.000000,,2013-03-29 12:42:00,
2013-03-29 07:52:00,28.0,28.0,-100.00,SE,132,4.0,5.0,100,0.00,,,-99.99,0.000000,,2013-03-29 12:52:00,
2013-03-29 08:22:00,32.0,32.0,-100.00,East,81,2.0,5.0,100,0.00,,,-99.99,22.000000,,2013-03-29 13:22:00,
2013-03-29 08:32:00,32.0,32.0,-100.00,East,81,2.0,5.0,100,0.00,,,-99.99,22.000000,,2013-03-29 13:32:00,
2013-03-29 08:42:00,32.0,32.0,-100.00,East,81,2.0,5.0,100,0.00,,,-99.99,22.000000,,2013-03-29 13:42:00,
2013-03-29 08:52:00,32.0,32.0,-100.00,East,81,2.0,5.0,100,0.00,,,-99.99,22.000000,,2013-03-29 13:52:00,
2013-03-29 09:22:00,40.0,39.0,-100.00,ENE,71,4.0,7.0,97,0.00,,,-99.99,176.000000,,2013-03-29 14:22:00,
2013-03-29 09:32:00,40.0,39.0,-100.00,ENE,71,4.0,7.0,97,0.00,,,-99.99,176.000000,,2013-03-29 14:32:00,
2013-03-29 09:42:00,40.0,39.0,-100.00,ENE,71,4.0,7.0,97,0.00,,,-99.99,176.000000,,2013-03-29 14:42:00,
2013-03-29 09:52:00,40.0,39.0,-100.00,ENE,71,4.0,7.0,97,0.00,,,-99.99,176.000000,,2013-03-29 14:52:00,
2013-03-29 10:22:00,49.0,43.0,-100.00,SE,140,9.0,12.0,80,0.00,,,-99.99,385.000000,,2013-03-29 15:22:00,
2013-03-29 10:33:00,49.0,43.0,-100.00,SE,140,9.0,12.0,80,0.00,,,-99.99,385.000000,,2013-03-29 15:33:00,
2013-03-29 10:43:00,49.0,43.0,-100.00,SE,140,9.0,12.0,80,0.00,,,-99.99,385.000000,,2013-03-29 15:43:00,
2013-03-29 10:52:00,49.0,43.0,-100.00,SE,140,9.0,12.0,80,0.00,,,-99.99,385.000000,,2013-03-29 15:52:00,
2013-03-29 11:23:00,57.0,43.0,-100.00,SSE,156,13.0,17.0,60,0.00,,,-99.99,604.000000,,2013-03-29 16:23:00,
2013-03-29 11:33:00,57.0,43.0,-100.00,SSE,156,13.0,17.0,60,0.00,,,-99.99,604.000000,,2013-03-29 16:33:00,
2013-03-29 11:42:00,57.0,43.0,-100.00,SSE,156,13.0,17.0,60,0.00,,,-99.99,604.000000,,2013-03-29 16:42:00,
2013-03-29 11:52:00,57.0,43.0,-100.00,SSE,156,13.0,17.0,60,0.00,,,-99.99,604.000000,,2013-03-29 16:52:00,
2013-03-29 12:22:00,60.0,41.0,-100.00,SSE,156,11.0,19.0,50,0.00,,,-99.99,782.000000,,2013-03-29 17:22:00,
2013-03-29 12:33:00,60.0,41.0,-100.00,SSE,156,11.0,19.0,50,0.00,,,-99.99,782.000000,,2013-03-29 17:33:00,
2013-03-29 12:43:00,60.0,41.0,-100.00,SSE,156,11.0,19.0,50,0.00,,,-99.99,782.000000,,2013-03-29 17:43:00,
2013-03-29 12:52:00,60.0,41.0,-100.00,SSE,156,11.0,19.0,50,0.00,,,-99.99,782.000000,,2013-03-29 17:52:00,
2013-03-29 13:23:00,63.0,43.0,-100.00,SSE,156,13.0,19.0,48,0.00,,,0.00,905.000000,,2013-03-29 18:23:00,
2013-03-29 13:32:00,63.0,43.0,-100.00,SSE,156,13.0,19.0,48,0.00,,,0.00,905.000000,,2013-03-29 18:32:00,
2013-03-29 13:42:00,63.0,43.0,-100.00,SSE,156,13.0,19.0,48,0.00,,,0.00,905.000000,,2013-03-29 18:42:00,
2013-03-29 13:52:00,63.0,43.0,-100.00,SSE,156,13.0,19.0,48,0.00,,,0.00,905.000000,,2013-03-29 18:52:00,
2013-03-29 14:23:00,67.0,42.0,-100.00,SSE,151,12.0,19.0,40,0.00,,,0.00,953.000000,,2013-03-29 19:23:00,
2013-03-29 14:32:00,67.0,42.0,-100.00,SSE,151,12.0,19.0,40,0.00,,,0.00,953.000000,,2013-03-29 19:32:00,
2013-03-29 14:42:00,67.0,42.0,-100.00,SSE,151,12.0,19.0,40,0.00,,,0.00,953.000000,,2013-03-29 19:42:00,
2013-03-29 14:52:00,67.0,42.0,-100.00,SSE,151,12.0,19.0,40,0.00,,,0.00,953.000000,,2013-03-29 19:52:00,
2013-03-29 15:22:00,68.0,39.0,-100.00,SSE,163,12.0,21.0,35,0.00,,,0.00,924.000000,,2013-03-29 20:22:00,
2013-03-29 15:33:00,68.0,39.0,-100.00,SSE,163,12.0,21.0,35,0.00,,,0.00,924.000000,,2013-03-29 20:33:00,
2013-03-29 15:42:00,68.0,39.0,-100.00,SSE,163,12.0,21.0,35,0.00,,,0.00,924.000000,,2013-03-29 20:42:00,
2013-03-29 15:52:00,68.0,39.0,-100.00,SSE,163,12.0,21.0,35,0.00,,,0.00,924.000000,,2013-03-29 20:52:00,
2013-03-29 16:22:00,69.0,39.0,-100.00,SSE,159,13.0,20.0,33,0.00,,,0.00,812.000000,,2013-03-29 21:22:00,
2013-03-29 16:33:00,69.0,39.0,-100.00,SSE,159,13.0,20.0,33,0.00,,,0.00,812.000000,,2013-03-29 21:33:00,
2013-03-29 16:42:00,69.0,39.0,-100.00,SSE,159,13.0,20.0,33,0.00,,,0.00,812.000000,,2013-03-29 21:42:00,
2013-03-29 16:53:00,69.0,39.0,-100.00,SSE,159,13.0,20.0,33,0.00,,,0.00,812.000000,,2013-03-29 21:53:00,
2013-03-29 17:23:00,69.0,38.0,-100.00,SSE,166,15.0,21.0,32,0.00,,,0.00,575.000000,,2013-03-29 22:23:00,
2013-03-29 17:33:00,69.0,38.0,-100.00,SSE,166,15.0,21.0,32,0.00,,,0.00,575.000000,,2013-03-29 22:33:00,
2013-03-29 17:42:00,69.0,38.0,-100.00,SSE,166,15.0,21.0,32,0.00,,,0.00,575.000000,,2013-03-29 22:42:00,
2013-03-29 17:52:00,69.0,38.0,-100.00,SSE,166,15.0,21.0,32,0.00,,,0.00,575.000000,,2013-03-29 22:52:00,
2013-03-29 18:22:00,68.0,39.0,-100.00,SSE,167,18.0,23.0,34,0.00,,,0.00,372.000000,,2013-03-29 23:22:00,
2013-03-29 18:32:00,68.0,39.0,-100.00,SSE,167,18.0,23.0,34,0.00,,,0.00,372.000000,,2013-03-29 23:32:00,
2013-03-29 18:42:00,68.0,39.0,-100.00,SSE,167,18.0,23.0,34,0.00,,,0.00,372.000000,,2013-03-29 23:42:00,
2013-03-29 18:52:00,68.0,39.0,-100.00,SSE,167,18.0,23.0,34,0.00,,,0.00,372.000000,,2013-03-29 23:52:00,
2013-03-29 19:22:00,64.0,39.0,-100.00,SE,142,12.0,22.0,39,0.00,,,0.00,101.000000,,2013-03-30 00:22:00,
2013-03-29 19:32:00,64.0,39.0,-100.00,SE,142,12.0,22.0,39,0.00,,,0.00,101.000000,,2013-03-30 00:32:00,
2013-03-29 19:42:00,64.0,39.0,-100.00,SE,142,12.0,22.0,39,0.00,,,0.00,101.000000,,2013-03-30 00:42:00,
2013-03-29 19:52:00,64.0,39.0,-100.00,SE,142,12.0,22.0,39,0.00,,,0.00,101.000000,,2013-03-30 00:52:00,
2013-03-29 20:22:00,59.0,37.0,-100.00,SE,131,9.0,14.0,44,0.00,,,0.00,25.000000,,2013-03-30 01:22:00,
2013-03-29 20:33:00,59.0,37.0,-100.00,SE,131,9.0,14.0,44,0.00,,,0.00,25.000000,,2013-03-30 01:33:00,
2013-03-29 20:43:00,59.0,37.0,-100.00,SE,131,9.0,14.0,44,0.00,,,0.00,25.000000,,2013-03-30 01:43:00,
2013-03-29 20:52:00,59.0,37.0,-100.00,SE,131,9.0,14.0,44,0.00,,,0.00,25.000000,,2013-03-30 01:52:00,
2013-03-29 21:22:00,52.0,40.0,-100.00,SE,144,6.0,9.0,63,0.00,,,0.00,0.000000,,2013-03-30 02:22:00,
2013-03-29 21:32:00,52.0,40.0,-100.00,SE,144,6.0,9.0,63,0.00,,,0.00,0.000000,,2013-03-30 02:32:00,
2013-03-29 21:42:00,52.0,40.0,-100.00,SE,144,6.0,9.0,63,0.00,,,0.00,0.000000,,2013-03-30 02:42:00,
2013-03-29 21:52:00,52.0,40.0,-100.00,SE,144,6.0,9.0,63,0.00,,,0.00,0.000000,,2013-03-30 02:52:00,
2013-03-29 22:22:00,54.0,43.0,-100.00,SE,128,7.0,9.0,67,0.00,,,0.00,0.000000,,2013-03-30 03:22:00,
2013-03-29 22:33:00,54.0,43.0,-100.00,SE,128,7.0,9.0,67,0.00,,,0.00,0.000000,,2013-03-30 03:33:00,
2013-03-29 22:43:00,54.0,43.0,-100.00,SE,128,7.0,9.0,67,0.00,,,0.00,0.000000,,2013-03-30 03:43:00,
2013-03-29 22:53:00,54.0,43.0,-100.00,SE,128,7.0,9.0,67,0.00,,,0.00,0.000000,,2013-03-30 03:53:00,
2013-03-29 23:23:00,56.0,44.0,-100.00,SE,126,10.0,12.0,63,0.00,,,0.00,0.000000,,2013-03-30 04:23:00,
2013-03-29 23:32:00,56.0,44.0,-100.00,SE,126,10.0,12.0,63,0.00,,,0.00,0.000000,,2013-03-30 04:32:00,
2013-03-29 23:43:00,56.0,44.0,-100.00,SE,126,10.0,12.0,63,0.00,,,0.00,0.000000,,2013-03-30 04:43:00,
2013-03-29 23:52:00,56.0,44.0,-100.00,SE,126,10.0,12.0,63,0.00,,,0.00,0.000000,,2013-03-30 04:52:00,